ATLAS 5 CENTAUR DEB, 43982

Orbit data source: Space-Track

ATLAS 5 CENTAUR DEB, 43982 is space debris in HEO originally from a launch on Wed, 17 Sep 2014 UTC launched from the Air Force Eastern Test Range (AFETR). Debris objects in space refer to the collection of defunct objects orbiting the Earth. Examples of debris include non-operational satellites, rocket bodies, and fragments generated from explosions, collisions, or faulty payload assembly.

Loading next visibility...
Identifier
43982, 2014-055AM
Orbit
HEO
Last TLE update
1 day ago
Origin
Flag of USUnited Launch Alliance/Lockheed Martin (US)
Manufacturer
Unknown
Mission
Spacecraft
Bus & Motor
Unknown
Mass
Unknown
Launch date (UTC)
2014-09-17 (11 years ago)
Launch vehicle
Unknown
Launch site
Air Force Eastern Test Range (AFETR)
Object type
Payload
Rocket body
Debris
Shape & HBR
Unknown
Radar Cross Section
RCS unknown

Expand to show TLE details & history

TLE from 1 day ago
0 ATLAS 5 CENTAUR DEB
1 43982U 14055AM  25181.00093680 -.00000065  00000-0  00000-0 0  9996
2 43982  19.6548 222.8007 4657432  29.0682 350.4803  1.75471992 43634
Epoch: 2025-06-30T00:01Z
TLE epoch observation values (Epoch: 2025-06-30T00:01:20.939Z)
Latitude
-0.00011°
Longitude
-55.83246°
Altitude
9,766.422 km
Speed
5.971 km/s
True Right ascension
14h 51m 17s
True Declination
0° 00' 00"
Sunlit
Object was in daylight at epoch
Visualization orbit readout
Latitude
-8.8573°
Longitude
149.92345°
Altitude
36,172.54 km
Speed
2.238 km/s
Apparent Right ascension
05h 00m 12s
Apparent Declination
-13° 51' 52"
Sunlit
Object is in daylight
Visualization observer readout
Local Sidereal Time
22:01:44
Azimuth
91.622° ESE
Elevation
-19.977°
Doppler factor
1
Orbital elements
Apogee altitude
36,183.205 km
Perigee altitude
9,135.28 km
Semi-major axis
29,037.38 km
Eccentricity
0.46574
Inclination
19.6548°
RAAN
222.8007°
Arg. of periapsis
29.0682°
True anomaly
Unknown
Mean anomaly
350.4803°
Eccentric anomaly
Unknown
Mean motion
0.43864 °/min
Orbital period
820.72 mins
BSTAR
0
Loading maneuver chart data...
Loading SW <> Apogee altitude chart data...
Loading historical data...
Loading historical data...
Loading historical data...
Loading historical data...
Loading historical data...
Loading historical data...
Loading historical data...

ATLAS 5 CENTAUR DEB Visibility forecast

Observer location: undefined°, undefined°

Span
Click to sort rows by Start time (UTC) header in descending order
Start Az.
Max El. time (UTC)
Max El. Az.
Max El.
End time (UTC)
End Az.
212 mins2025-07-02 06:51:18.287Z241.201° WSW2025-07-02 07:41:18.287Z165.688° S39.875°2025-07-02 10:23:18.287Z108.663° ESE
|